Location: Ajisawe
(8.4333°N, 4.3833°E)
Time: 01:02:50
(UTC+00:00)

Courier 1B Rocket - Pass Details

Date: 29 April 2021
Orbit: 920 x 1202 km, 28.3° (Epoch: 13 May)

Event Time Altitude Azimuth Distance (km) Brightness Sun altitude
Rises 22:57:38 0° 290° (WNW) 3,763 - -64.6°
Reaches altitude 10° 23:00:19 10° 286° (WNW) 2,853 - -64.8°
Maximum altitude 23:07:08 54° 210° (SSW) 1,318 - -65.4°
Drops below altitude 10° 23:14:28 10° 134° (SE) 3,050 - -66.0°
Sets 23:17:26 0° 130° (SE) 4,042 - -66.1°
